Broen, Sweden

4:26 AM CEST on August 28, 2015 (GMT +0200)
Eftra | | Change Station
CLOSE
Current Station
Personal Weather Station
Location: Falkenberg, Halland
Elevation: 146 ft
Nearby Weather Stations

Elev 146 ft 56.86 °N, 12.65 °E | Updated 6 seconds ago

Light Drizzle
Light Drizzle
59.5 °F
Feels Like 59.5 °F
N
0.0
Wind Variable Wind from SW
Gusts 8.6 mph

Today
High -- | Low -- °F
--% Chance of Precip.
Yesterday
High -- | Low -- °F
Precip. -- in
6:02 AM 8:17 PM
Waxing Gibbous, 96% visible
Pressure 29.74 in
Visibility 6.2 miles
Clouds Few 1000 ft
Scattered Clouds 2700 ft
Mostly Cloudy 6100 ft
Dew Point 57 °F
Humidity 91%
Rainfall 0.04 in
Snow Depth Not available.
UV 0 out of 12
Pollen Not available.
Air Quality Not available.
Flu Activity Not available.
METAR ESMT 280220Z AUTO 21006KT 9999 -DZ FEW010/// SCT027/// BKN061/// 14/13 Q1007
Pressure 29.74 in
Visibility 6.2 miles
Clouds Few 1000 ft
Scattered Clouds 2700 ft
Mostly Cloudy 6100 ft
Dew Point 57 °F
Humidity 91%
Rainfall 0.04 in
Snow Depth Not available.
UV 0 out of 12
Pollen Not available.
Air Quality Not available.
Flu Activity Not available.
METAR ESMT 280220Z AUTO 21006KT 9999 -DZ FEW010/// SCT027/// BKN061/// 14/13 Q1007

10-Day Weather Forecast

×

Almanac

Astronomy

Aug. 28, 2015 Rise Set
Actual Time
Civil Twilight
Nautical Twilight
Astronomical Twilight
Moon
Length of Visible Light
Length of Day
Tomorrow will be .
, % of the Moon is Illuminated

Today's Extremes

Country Highs Country Lows

Community

WunderPhotos

Upload Photos

1,850,301 photos uploaded!

WunderBlogs® & News

Nearby

Air Quality

  Air Quality AQ Index Pollutant
Not available.

Snow Depth

Station Depth Elevation

Earthquake Activity

City Distance Mag. Time & Date
Minimum magnitude displayed is 2.5.

Coastal Water Temperatures

Place Temperature

Stations

Nearby Weather Stations

Station Location Temp. Windchill Dew Point Humidity Wind Precip. Elev Updated Type